| Fund (series)↕ | Registrant↕ | Ticker↕ | Latest report↕ | Net assets▲ |
|---|---|---|---|---|
| Target 2015 Allocation Portfolio S000080939 | EQ Advisors Trust CIK 0001027263 | — | 2026-03-31A | $20.40M |
| Tandem Fund S000065065 |
| PFS FUNDS CIK 0001103243 |
| — |
| 2026-03-31 |
| $20.47M |
| LVIP American Funds Vanguard Active Passive Growth Fund S000092701 | LINCOLN VARIABLE INSURANCE PRODUCTS TRU… CIK 0000914036 | — | 2026-03-31 | $20.49M |
| Horizon Kinetics Blockchain Development ETF S000076848 | Listed Funds Trust CIK 0001683471 | BCDF | 2026-03-31 | $20.55M |
| Guggenheim Active INvestment Series (GAINS)-Limited Durat… S000085234 | Guggenheim Funds Trust CIK 0000088525 | — | 2026-03-31 | $20.58M |
| Blue Chip Account S000070249 | Principal Variable Contract Funds, Inc CIK 0000012601 | — | 2026-03-31 | $20.58M |
| Formidable Fortress ETF S000071250 | ETF Opportunities Trust CIK 0001771146 | KONG | 2026-03-31 | $20.65M |
| DWS International Opportunities VIP S000006276 | DEUTSCHE DWS VARIABLE SERIES II CIK 0000810573 | — | 2026-03-31 | $20.68M |
| Alpha Architect Global Factor Equity ETF S000057372 | EA Series Trust CIK 0001592900 | AAVM | 2026-03-31 | $20.70M |
| Tradr 2X Long UPST Daily ETF S000091892 | INVESTMENT MANAGERS SERIES TRUST II CIK 0001587982 | UPSX | 2026-03-31 | $20.72M |
| Matthews China Active ETF S000076757 | Matthews International Funds CIK 0000923184 | MCH | 2026-03-31 | $20.72M |
| iShares Lithium Miners and Producers ETF S000080108 | iShares Trust CIK 0001100663 | ILIT | 2026-03-31 | $20.74M |
| Bain Capital Equity Opportunities Fund S000088357 | Northern Lights Variable Trust CIK 0001352621 | — | 2026-03-31 | $20.77M |
| Intelligent Alpha Atlas ETF S000086878 | EA Series Trust CIK 0001592900 | GPT | 2026-03-31 | $20.80M |
| First Trust Bloomberg Nuclear Power ETF S000093414 | First Trust Exchange-Traded Fund II CIK 0001364608 | RCTR | 2026-03-31 | $20.83M |
| Gabelli SRI Fund, Inc. S000017367 | Gabelli SRI Fund, Inc. CIK 0001391839 | — | 2026-03-31 | $20.87M |
| Bitwise COIN Option Income Strategy ETF S000091075 | Bitwise Funds Trust CIK 0001928561 | — | 2026-03-31 | $20.88M |
| First Trust Bloomberg Emerging Market Democracies ETF S000079490 | First Trust Exchange-Traded Fund II CIK 0001364608 | EMDM | 2026-03-31 | $20.89M |
| Energy Fund S000003714 | Rydex Variable Trust CIK 0001064046 | — | 2026-03-31 | $20.94M |
| T-REX 2X Long Microsoft Daily Target ETF S000083677 | ETF Opportunities Trust CIK 0001771146 | MSFX | 2026-03-31 | $20.98M |
| The Gabelli Dividend Growth Fund S000001071 | Gabelli Dividend Growth Fund CIK 0001086884 | — | 2026-03-31 | $21.08M |
| Simplify Volt TSLA Revolution ETF S000070133 | Simplify Exchange Traded Funds CIK 0001810747 | TESL | 2026-03-31 | $21.09M |
| State Street Small-Cap Equity V.I.S. Fund S000001636 | STATE STREET VARIABLE INSURANCE SERIES … CIK 0000746687 | — | 2026-03-31 | $21.24M |
| Vontobel Global Equity S000086262 | ADVISORS' INNER CIRCLE FUND II CIK 0000890540 | — | 2026-03-31 | $21.25M |
| VanEck VIP Emerging Markets Bond Fund S000009220 | VanEck VIP Trust CIK 0000811976 | — | 2026-03-31 | $21.30M |
| AQR MS Fusion Fund S000093173 | AQR Funds CIK 0001444822 | — | 2026-03-31 | $21.36M |
| Calvert VP SRI Mid Cap Portfolio S000008732 | Calvert Variable Series, Inc. CIK 0000708950 | — | 2026-03-31 | $21.38M |
| The E-Valuator Very Conservative (0%-15%) RMS Fund S000070064 | E-Valuator Funds Trust CIK 0001821505 | — | 2026-03-31 | $21.44M |
| Franklin Genomic Advancements ETF S000067393 | Franklin Templeton ETF Trust CIK 0001655589 | HELX | 2026-03-31 | $21.45M |
| Small Company Growth Portfolio S000001047 | Wilshire Mutual Funds Inc CIK 0000890453 | — | 2026-03-31 | $21.52M |
| Rayliant SMDAM Japan Equity ETF S000084471 | ADVISORS' INNER CIRCLE III CIK 0001593547 | — | 2026-03-31 | $21.55M |
| STERLING CAPITAL ULTRA SHORT BOND ETF S000097706 | Sterling Capital Funds CIK 0000889284 | — | 2026-03-31 | $21.56M |
| Fidelity Flex Freedom Blend 2065 Fund S000065623 | Fidelity Aberdeen Street Trust CIK 0000880195 | — | 2026-03-31 | $21.56M |
| VanEck Consumer Discretionary TruSector ETF S000091808 | VanEck ETF Trust CIK 0001137360 | TRUD | 2026-03-31 | $21.60M |
| First Trust Indxx Critical Metals ETF S000095822 | First Trust Exchange-Traded Fund II CIK 0001364608 | FMTL | 2026-03-31 | $21.73M |
| AlphaCentric Robotics and Automation Fund S000057714 | MUTUAL FUND SERIES TRUST CIK 0001355064 | — | 2026-03-31 | $21.77M |
| BARRETT OPPORTUNITY FUND S000081721 | Segall Bryant & Hamill Trust CIK 0000357204 | — | 2026-03-31 | $21.81M |
| Aristotle Small/Mid Cap Equity Fund S000080058 | Aristotle Fund Series Trust CIK 0001959372 | — | 2026-03-31 | $21.85M |
| BARRETT GROWTH FUND S000081723 | Segall Bryant & Hamill Trust CIK 0000357204 | — | 2026-03-31 | $21.91M |
| Leuthold Global Fund S000083372 | Managed Portfolio Series CIK 0001511699 | — | 2026-03-31 | $21.92M |
| Electronics Fund S000003713 | Rydex Variable Trust CIK 0001064046 | — | 2026-03-31 | $21.92M |
| T. Rowe Price Transition Fund S000070551 | T. ROWE PRICE RESERVE INVESTMENT FUNDS,… CIK 0001034386 | — | 2026-03-31 | $21.94M |
| USGI NEAR-TERM TAX FREE FUND S000004789 | U.S. GLOBAL INVESTORS FUNDS CIK 0000101507 | — | 2026-03-31 | $22.01M |
| Smart Earnings Growth 30 ETF S000094702 | Tidal Trust I CIK 0001742912 | SGRT | 2026-03-31 | $22.04M |
| Gabelli Global Mini Mites Fund S000063160 | GAMCO Global Series Funds, Inc CIK 0000909504 | — | 2026-03-31 | $22.04M |
| American Beacon Shapiro SMID Cap Equity Fund S000058550 | AMERICAN BEACON FUNDS CIK 0000809593 | — | 2026-03-31 | $22.05M |
| FULLERTHALER BEHAVIORAL MICRO-CAP EQUITY FUND S000063934 | Capitol Series Trust CIK 0001587551 | — | 2026-03-31 | $22.06M |
| Loomis Sayles International Growth Fund S000070337 | LOOMIS SAYLES FUNDS II CIK 0000872649 | — | 2026-03-31 | $22.06M |
| Cromwell Tran Focus Fund S000075258 | Total Fund Solution CIK 0001872253 | — | 2026-03-31 | $22.12M |
| Themes China Generative Artificial Intelligence ETF S000081032 | Themes ETF Trust CIK 0001976322 | DRGN | 2026-03-31 | $22.24M |